Location: Unspecified
(0.0000°N, 0.0000°E)
Time: 14:30:14
(UTC+00:00)

Vanguard 2 Rocket - All Passes

Search period start: 30 May 2015 00:00
Search period end: 09 June 2015 00:00
Orbit: 556 x 3330 km, 32.9° (Epoch: 28 May)

Date Brightness Start Highest point End Pass type
(mag) Time Alt. Az. Time Alt. Az. Time Alt. Az.
30 May - 01:02:52 10° SSW 01:17:32 25° SSE 01:30:12 10° ESE visible
30 May - 03:21:20 10° SW 03:38:32 49° SSE 03:49:17 10° E visible
30 May - 05:40:53 10° WSW 05:54:57 62° NW 06:02:38 10° NE daylight
30 May - 08:07:17 10° NW 08:08:43 10° NW 08:09:29 10° NNW daylight
30 May - 14:53:49 10° N 14:57:37 18° NE 15:03:05 10° E daylight
30 May - 17:03:55 10° WNW 17:11:03 83° SSW 17:24:18 10° SE daylight
30 May - 19:18:40 10° W 19:28:17 32° SSW 19:42:38 10° SE visible
30 May - 21:39:16 10° SW 21:50:05 19° S 22:02:30 10° SSE visible
31 May - 00:01:14 10° SSW 00:14:41 21° S 00:27:45 10° SE visible
31 May - 02:19:49 10° SW 02:37:12 40° SSE 02:49:29 10° E visible
31 May - 04:38:40 10° SW 04:55:20 89° NW 05:04:32 10° NE visible
31 May - 07:01:22 10° W 07:09:41 23° NW 07:15:02 10° N daylight
31 May - 16:05:55 10° NW 16:11:55 64° NE 16:22:43 10° ESE daylight
31 May - 18:19:09 10° W 18:27:28 40° SSW 18:41:09 10° SE visible
31 May - 20:37:40 10° SW 20:47:35 21° S 20:59:54 10° SSE visible
31 May - 22:59:38 10° SSW 23:11:33 19° S 23:24:17 10° SE visible
01 Jun - 01:18:30 10° SW 01:35:13 32° SSE 01:48:48 10° E visible
01 Jun - 03:36:44 10° SW 03:55:03 70° SSE 04:05:53 10° ENE visible
01 Jun - 05:57:53 10° WSW 06:10:35 39° NW 06:17:58 10° NNE daylight
01 Jun - 15:08:26 10° NNW 15:13:16 35° NE 15:21:02 10° ESE daylight
01 Jun - 17:20:14 10° WNW 17:27:19 52° SSW 17:39:52 10° SE daylight
01 Jun - 19:36:48 10° WSW 19:45:43 23° SSW 19:57:47 10° SSE visible
01 Jun - 21:58:07 10° SW 22:08:28 18° S 22:20:17 10° SE visible
02 Jun - 00:17:22 10° SSW 00:32:42 27° SSE 00:46:59 10° ESE visible
02 Jun - 02:35:06 10° SW 02:54:03 55° SSE 03:06:37 10° ENE visible
02 Jun - 04:54:57 10° WSW 05:11:07 61° NW 05:20:13 10° NE visible
02 Jun - 07:21:19 10° WNW 07:25:39 13° NW 07:28:38 10° NNW daylight
02 Jun - 14:11:45 10° N 14:14:46 16° NE 14:18:51 10° E daylight
02 Jun - 16:21:48 10° WNW 16:27:49 74° SSW 16:38:45 10° SE daylight
02 Jun - 18:36:41 10° WSW 18:44:34 27° SSW 18:56:10 10° SSE visible
02 Jun - 20:56:46 10° SW 21:05:43 17° S 21:16:25 10° SSE visible
02 Jun - 23:16:29 10° SSW 23:29:49 22° SSE 23:43:54 10° ESE night (unlit)
03 Jun - 01:33:49 10° SW 01:52:24 44° SSE 02:06:34 10° E visible
03 Jun - 03:52:32 10° SW 04:11:06 84° NW 04:21:57 10° NE visible
03 Jun - 06:15:57 10° W 06:26:18 25° NW 06:32:50 10° NNE daylight
03 Jun - 15:23:49 10° NW 15:28:56 69° NE 15:37:46 10° ESE daylight
03 Jun - 17:37:12 10° W 17:44:04 32° SSW 17:55:00 10° SE daylight
03 Jun - 19:55:43 10° SW 20:03:32 17° S 20:13:17 10° SSE visible
03 Jun - 22:15:48 10° SSW 22:26:49 19° S 22:39:36 10° SE visible
04 Jun - 00:32:54 10° SW 00:50:12 35° SSE 01:05:32 10° E visible
04 Jun - 02:50:35 10° SW 03:10:25 75° SSE 03:23:06 10° ENE visible
04 Jun - 05:12:02 10° WSW 05:26:46 41° NW 05:35:31 10° NNE visible
04 Jun - 14:26:16 10° NNW 14:30:27 34° NE 14:36:43 10° ESE daylight
04 Jun - 16:38:17 10° W 16:44:12 42° SSW 16:54:11 10° SE daylight
04 Jun - 18:55:07 10° SW 19:02:02 18° S 19:11:05 10° SSE visible
04 Jun - 21:15:18 10° SSW 21:24:01 16° S 21:34:35 10° SE visible
04 Jun - 23:32:22 10° SSW 23:47:39 28° SSE 00:03:15 10° ESE visible
05 Jun - 01:49:09 10° SW 02:09:05 60° SSE 02:23:34 10° ENE visible
05 Jun - 04:08:53 10° WSW 04:26:52 60° NW 04:37:35 10° NE visible
05 Jun - 06:35:38 10° WNW 06:42:21 15° NW 06:46:55 10° N daylight
05 Jun - 13:29:31 10° N 13:32:02 15° NE 13:35:11 10° ENE daylight
05 Jun - 15:39:47 10° WNW 15:44:55 62° SSW 15:53:40 10° SE daylight
05 Jun - 17:55:03 10° WSW 18:01:12 21° SSW 18:09:45 10° SSE daylight
05 Jun - 20:14:54 10° SSW 20:21:37 14° S 20:29:47 10° SSE visible
05 Jun - 22:32:12 10° SSW 22:44:54 23° SSE 22:59:31 10° ESE visible
06 Jun - 00:48:12 10° SW 01:07:12 47° SSE 01:23:12 10° E visible
06 Jun - 03:06:26 10° WSW 03:26:24 81° NW 03:39:04 10° NE visible
06 Jun - 05:30:11 10° W 05:42:35 27° NW 05:50:26 10° NNE visible
06 Jun - 14:41:42 10° NW 14:46:10 76° NE 14:53:17 10° ESE daylight
06 Jun - 16:55:31 10° WSW 17:01:00 25° SSW 17:09:05 10° SSE daylight
06 Jun - 19:14:30 10° SSW 19:19:49 14° S 19:26:10 10° SSE visible
06 Jun - 21:32:25 10° SSW 21:42:12 18° SSE 21:54:23 10° SE visible
06 Jun - 23:47:47 10° SSW 00:04:56 37° SSE 00:21:45 10° E visible
07 Jun - 02:04:40 10° SW 02:25:19 80° SE 02:39:57 10° ENE visible
07 Jun - 04:26:02 10° WSW 04:42:35 42° NW 04:52:51 10° NNE visible
07 Jun - 13:44:01 10° NNW 13:47:47 35° NE 13:52:55 10° ESE daylight
07 Jun - 15:56:28 10° W 16:01:21 32° SSW 16:08:54 10° SE daylight
07 Jun - 18:14:09 10° SW 18:18:40 14° S 18:24:04 10° SSE visible
07 Jun - 20:33:01 10° SSW 20:39:47 14° S 20:48:20 10° SE visible
07 Jun - 22:47:50 10° SSW 23:02:29 29° SSE 23:18:58 10° E visible
08 Jun - 01:03:34 10° SW 01:23:42 64° SSE 01:40:06 10° ENE visible
08 Jun - 03:22:51 10° WSW 03:42:10 59° NW 03:54:37 10° NE visible
08 Jun - 05:49:46 10° WNW 05:58:47 18° NW 06:04:50 10° N daylight
08 Jun - 12:46:59 10° N 12:49:22 15° NE 12:52:06 10° ENE daylight
08 Jun - 14:57:49 10° WNW 15:02:14 49° SSW 15:09:02 10° SE daylight
08 Jun - 17:13:58 10° SW 17:18:09 15° SSW 17:23:18 10° SSE daylight
08 Jun - 19:34:04 10° SSW 19:37:48 11° S 19:42:16 10° SSE visible
08 Jun - 21:48:23 10° SSW 22:00:03 22° SSE 22:14:36 10° ESE visible
